Location: Kapuskasing
(49.3803°N, 82.4001°W)
Time: 11:22:46
(UTC-04:00)

RS-44 - Pass Details

Date: 14 March 2026
Orbit: 1175 x 1510 km, 82.5° (Epoch: 11 April)

Event Time Altitude Azimuth Distance (km) Brightness Sun altitude
Rises 02:29:07 0° 352° (N) 4,350 ? -41.9°
Reaches altitude 10° 02:32:20 10° 4° (N) 3,426 ? -41.8°
Maximum altitude 02:39:22 30° 63° (ENE) 2,327 ? -41.4°
Enters shadow 02:43:04 22° 101° (E) 2,728 ? -41.2°
